Location: Ergnies
(50.0854°N, 2.0375°E)
Time: 14:41:53
(UTC+00:00)

USA 32 - Visible Passes

Search period start: 11 April 2026 00:00
Search period end: 21 April 2026 00:00
Orbit: 775 x 779 km, 85.0° (Epoch: 11 April)

Date Brightness Start Highest point End Pass type
(mag) Time Alt. Az. Time Alt. Az. Time Alt. Az.
11 Apr 5.0 19:53:57 16° SE 19:57:01 27° E 20:01:21 10° NNE visible
11 Apr 4.9 21:34:21 20° SW 21:37:39 47° WNW 21:42:43 10° N visible
12 Apr 5.6 19:20:21 10° ESE 19:23:33 17° ENE 19:26:45 10° NE visible
12 Apr 4.1 21:00:01 20° SSW 21:03:45 78° W 21:09:01 10° N visible
12 Apr 6.7 22:43:08 10° W 22:45:35 13° WNW 22:48:03 10° NW visible
13 Apr 4.0 20:25:38 15° S 20:29:58 63° E 20:35:09 10° NNE visible
13 Apr 6.2 22:07:25 10° WSW 22:11:21 21° WNW 22:15:19 10° NNW visible
14 Apr 4.6 19:51:33 10° SSE 19:56:19 37° E 20:01:07 10° NNE visible
14 Apr 5.5 21:32:31 10° SW 21:37:14 34° WNW 21:42:00 10° N visible
15 Apr 5.2 19:18:45 10° SE 19:22:46 23° E 19:26:48 10° NNE visible
15 Apr 4.6 20:58:08 10° SSW 21:03:15 56° W 21:08:26 10° N visible
16 Apr 4.0 20:24:11 10° S 20:29:24 88° E 20:34:40 10° N visible
16 Apr 6.7 22:07:59 10° W 22:11:05 16° WNW 22:14:11 10° NNW visible
17 Apr 4.2 19:50:37 10° SSE 19:55:40 53° E 20:00:45 10° NNE visible
17 Apr 6.1 21:32:37 10° SW 21:36:53 25° WNW 21:41:10 10° NNW visible
18 Apr 5.3 20:57:55 10° SW 21:02:49 40° WNW 21:07:45 10° N visible
19 Apr 4.4 20:23:41 10° SSW 20:28:53 67° W 20:34:07 10° N visible
19 Apr 7.0 22:09:18 10° WNW 22:10:52 11° WNW 22:12:28 10° NW visible
20 Apr 4.0 19:49:52 10° S 19:55:04 75° E 20:00:19 10° N visible
20 Apr 6.6 21:33:00 10° WSW 21:36:35 18° WNW 21:40:11 10° NNW visible
